CCA8568 ZSWZ-ZSPD

Flight info

Callsign CCA8568
Flight time 0h 53m
Altitude 18700
Route REMIM5X REMIM B221 SHZ W58 XSY
Aircraft A321/M-SDE3FGHIRWY/LB1

Departure

Time 2026-05-07 22:35
Airport Wenzhou Longwan International Airport (ZSWZ)

Arrival

Time 2026-05-07 23:28
Airport Shanghai Pudong International Airport (ZSPD)
Time Latitude Longitude Altitude Speed Heading
2026-05-07 22:14 27.90995 120.84754 15 ft 0 kts 232°
2026-05-07 22:26 27.91008 120.84772 13 ft 4 kts 227°
2026-05-07 22:26 27.91028 120.84793 11 ft 4 kts 214°
2026-05-07 22:26 27.91051 120.84806 11 ft 4 kts 176°
2026-05-07 22:26 27.91064 120.84799 13 ft 1 kts 118°
2026-05-07 22:27 27.91066 120.84796 13 ft 2 kts 118°
2026-05-07 22:29 27.91066 120.84795 13 ft 0 kts 118°
2026-05-07 22:29 27.91066 120.84796 13 ft 0 kts 118°
2026-05-07 22:29 27.91048 120.84833 13 ft 11 kts 118°
2026-05-07 22:30 27.91011 120.84911 12 ft 11 kts 118°
2026-05-07 22:30 27.90956 120.84970 12 ft 11 kts 175°
2026-05-07 22:30 27.90894 120.84946 12 ft 9 kts 206°
2026-05-07 22:30 27.90816 120.84898 12 ft 18 kts 210°
2026-05-07 22:31 27.90698 120.84825 13 ft 20 kts 208°
2026-05-07 22:31 27.90578 120.84752 12 ft 19 kts 208°
2026-05-07 22:31 27.90468 120.84685 12 ft 17 kts 208°
2026-05-07 22:31 27.90359 120.84620 12 ft 19 kts 208°
2026-05-07 22:32 27.90250 120.84553 12 ft 17 kts 208°
2026-05-07 22:32 27.90151 120.84494 12 ft 16 kts 207°
2026-05-07 22:32 27.90056 120.84436 12 ft 16 kts 208°
2026-05-07 22:32 27.89934 120.84362 12 ft 23 kts 208°
2026-05-07 22:33 27.89794 120.84278 11 ft 20 kts 207°
2026-05-07 22:33 27.89698 120.84246 11 ft 12 kts 154°
2026-05-07 22:33 27.89648 120.84327 11 ft 16 kts 120°
2026-05-07 22:33 27.89600 120.84439 11 ft 9 kts 96°
2026-05-07 22:34 27.89636 120.84484 11 ft 7 kts 28°
2026-05-07 22:34 27.89652 120.84494 15 ft 0 kts 28°
2026-05-07 22:34 27.89691 120.84517 12 ft 30 kts 28°
2026-05-07 22:34 27.90090 120.84758 13 ft 96 kts 28°
2026-05-07 22:35 27.90838 120.85211 12 ft 145 kts 28°
2026-05-07 22:35 27.91815 120.85806 265 ft 163 kts 29°
2026-05-07 22:35 27.92806 120.86390 920 ft 161 kts 29°
2026-05-07 22:35 27.93810 120.86993 1418 ft 169 kts 29°
2026-05-07 22:36 27.94904 120.87646 1660 ft 186 kts 30°
2026-05-07 22:36 27.96107 120.88357 1959 ft 196 kts 30°
2026-05-07 22:36 27.97321 120.89100 2394 ft 202 kts 29°
2026-05-07 22:36 27.98577 120.89868 2914 ft 207 kts 29°
2026-05-07 22:37 27.99849 120.90644 3549 ft 209 kts 29°
2026-05-07 22:37 28.01136 120.91428 4153 ft 213 kts 28°
2026-05-07 22:37 28.02512 120.92124 4632 ft 221 kts
2026-05-07 22:37 28.04034 120.91918 5168 ft 227 kts 333°
2026-05-07 22:38 28.05177 120.90686 5704 ft 234 kts 301°
2026-05-07 22:38 28.05963 120.89060 6334 ft 237 kts 298°
2026-05-07 22:38 28.06735 120.87408 6997 ft 238 kts 298°
2026-05-07 22:38 28.07510 120.85746 7613 ft 239 kts 297°
2026-05-07 22:39 28.08292 120.84081 8236 ft 240 kts 297°
2026-05-07 22:39 28.09082 120.82408 8789 ft 246 kts 297°
2026-05-07 22:39 28.09926 120.80623 8956 ft 269 kts 297°
2026-05-07 22:39 28.10838 120.78694 9280 ft 284 kts 297°
2026-05-07 22:40 28.11780 120.76704 9919 ft 288 kts 296°
2026-05-07 22:40 28.12742 120.74667 10300 ft 302 kts 296°
2026-05-07 22:40 28.13768 120.72492 10411 ft 324 kts 296°
2026-05-07 22:40 28.14898 120.70199 10655 ft 341 kts 303°
2026-05-07 22:41 28.16609 120.68306 11204 ft 351 kts 326°
2026-05-07 22:41 28.18875 120.67330 11762 ft 361 kts 350°
2026-05-07 22:41 28.21430 120.67366 12430 ft 365 kts
2026-05-07 22:41 28.23934 120.67603 13067 ft 367 kts
2026-05-07 22:42 28.26486 120.67868 13670 ft 370 kts
2026-05-07 22:42 28.29058 120.68138 14195 ft 373 kts
2026-05-07 22:42 28.31657 120.68407 14710 ft 377 kts
2026-05-07 22:42 28.34281 120.68672 15204 ft 380 kts
2026-05-07 22:43 28.36926 120.68934 15673 ft 384 kts
2026-05-07 22:43 28.39593 120.69198 16170 ft 386 kts
2026-05-07 22:43 28.42280 120.69462 16647 ft 389 kts
2026-05-07 22:43 28.44989 120.69729 17101 ft 392 kts 360°
2026-05-07 22:44 28.47719 120.70005 17565 ft 396 kts 360°
2026-05-07 22:44 28.50474 120.70291 18052 ft 399 kts
2026-05-07 22:44 28.53252 120.70583 18816 ft 402 kts
2026-05-07 22:44 28.56022 120.70877 18512 ft 399 kts
2026-05-07 22:45 28.58797 120.71170 18682 ft 401 kts 359°
2026-05-07 22:45 28.61583 120.71462 18806 ft 403 kts 359°
2026-05-07 22:45 28.64373 120.71754 18819 ft 403 kts 359°
2026-05-07 22:45 28.67163 120.72047 18818 ft 403 kts 359°
2026-05-07 22:46 28.69953 120.72340 18824 ft 403 kts 359°
2026-05-07 22:46 28.72741 120.72632 18832 ft 402 kts 359°
2026-05-07 22:46 28.75529 120.72922 18827 ft 402 kts 359°
2026-05-07 22:46 28.78318 120.73210 18832 ft 403 kts 359°
2026-05-07 22:47 28.81109 120.73499 18836 ft 403 kts 359°
2026-05-07 22:47 28.83902 120.73793 18861 ft 403 kts 359°
2026-05-07 22:47 28.86693 120.74088 18853 ft 402 kts 359°
2026-05-07 22:47 28.89481 120.74374 18848 ft 402 kts 359°
2026-05-07 22:48 28.92261 120.74657 18851 ft 401 kts 359°
2026-05-07 22:48 28.95039 120.74940 18849 ft 401 kts 359°
2026-05-07 22:48 28.97819 120.75226 18847 ft 401 kts 359°
2026-05-07 22:48 29.00602 120.75515 18850 ft 402 kts 359°
2026-05-07 22:49 29.03388 120.75802 18858 ft 402 kts 359°
2026-05-07 22:49 29.06172 120.76087 18874 ft 401 kts 359°
2026-05-07 22:49 29.08917 120.76369 18874 ft 401 kts 360°
2026-05-07 22:49 29.11695 120.76659 18883 ft 401 kts 360°
2026-05-07 22:50 29.14474 120.76947 18883 ft 401 kts 359°
2026-05-07 22:50 29.17249 120.77231 18881 ft 400 kts 359°
2026-05-07 22:50 29.20023 120.77515 18880 ft 400 kts 359°
2026-05-07 22:50 29.22798 120.77801 18888 ft 400 kts 359°
2026-05-07 22:51 29.25574 120.78086 18884 ft 400 kts 359°
2026-05-07 22:51 29.28351 120.78366 18802 ft 400 kts 359°
2026-05-07 22:51 29.31114 120.78649 18870 ft 400 kts 360°
2026-05-07 22:51 29.33890 120.78939 18878 ft 401 kts 360°
2026-05-07 22:52 29.36667 120.79232 18884 ft 401 kts 360°
2026-05-07 22:52 29.39444 120.79522 18888 ft 401 kts 360°
2026-05-07 22:52 29.42223 120.79812 18896 ft 401 kts 360°
2026-05-07 22:52 29.44992 120.80100 18893 ft 399 kts 360°
2026-05-07 22:53 29.46824 120.80290 18896 ft 400 kts 360°
2026-05-07 22:53 29.50529 120.80678 18896 ft 399 kts 360°
2026-05-07 22:53 29.53293 120.80967 18893 ft 399 kts 360°
2026-05-07 22:53 29.55120 120.81216 18902 ft 402 kts
2026-05-07 22:54 29.57840 120.82160 18888 ft 415 kts 19°
2026-05-07 22:54 29.60351 120.83851 18890 ft 423 kts 34°
2026-05-07 22:54 29.62496 120.86193 18890 ft 429 kts 48°
2026-05-07 22:54 29.64219 120.89008 18892 ft 431 kts 54°
2026-05-07 22:55 29.65866 120.91887 18890 ft 431 kts 54°
2026-05-07 22:55 29.67520 120.94764 18892 ft 431 kts 54°
2026-05-07 22:55 29.69733 120.98610 18889 ft 429 kts 53°
2026-05-07 22:55 29.70822 121.00504 18895 ft 429 kts 53°
2026-05-07 22:56 29.72467 121.03365 18893 ft 429 kts 53°
2026-05-07 22:56 29.74104 121.06220 18832 ft 424 kts 54°
2026-05-07 22:56 29.75715 121.09035 18527 ft 418 kts 55°
2026-05-07 22:56 29.77297 121.11804 18180 ft 411 kts 55°
2026-05-07 22:57 29.78854 121.14536 17811 ft 405 kts 55°
2026-05-07 22:57 29.80388 121.17228 17451 ft 400 kts 55°
2026-05-07 22:57 29.81902 121.19888 17110 ft 394 kts 55°
2026-05-07 22:57 29.83389 121.22500 16966 ft 386 kts 55°
2026-05-07 22:58 29.84857 121.25077 16981 ft 383 kts 54°
2026-05-07 22:58 29.86318 121.27637 16990 ft 382 kts 54°
2026-05-07 22:58 29.87796 121.30180 16991 ft 381 kts 51°
2026-05-07 22:58 29.89524 121.32494 16995 ft 383 kts 41°
2026-05-07 22:59 29.91565 121.34487 16994 ft 385 kts 31°
2026-05-07 22:59 29.93841 121.36091 16987 ft 377 kts 24°
2026-05-07 22:59 29.96140 121.37514 16991 ft 373 kts 24°
2026-05-07 22:59 29.98420 121.38934 16992 ft 372 kts 24°
2026-05-07 23:00 30.00694 121.40356 16990 ft 372 kts 24°
2026-05-07 23:00 30.02971 121.41784 16990 ft 372 kts 24°
2026-05-07 23:00 30.05243 121.43210 16991 ft 372 kts 24°
2026-05-07 23:00 30.07519 121.44638 16992 ft 372 kts 24°
2026-05-07 23:01 30.09764 121.46045 16992 ft 372 kts 24°
2026-05-07 23:01 30.12038 121.47469 17010 ft 373 kts 24°
2026-05-07 23:01 30.14322 121.48900 16993 ft 374 kts 25°
2026-05-07 23:01 30.16608 121.50338 16991 ft 374 kts 25°
2026-05-07 23:02 30.18897 121.51778 16989 ft 374 kts 25°
2026-05-07 23:02 30.21183 121.53215 16988 ft 374 kts 24°
2026-05-07 23:02 30.23466 121.54649 16992 ft 374 kts 24°
2026-05-07 23:02 30.25751 121.56086 16979 ft 374 kts 24°
2026-05-07 23:03 30.28023 121.57531 16669 ft 371 kts 25°
2026-05-07 23:03 30.30264 121.58981 16273 ft 368 kts 25°
2026-05-07 23:03 30.32483 121.60431 15906 ft 365 kts 26°
2026-05-07 23:03 30.34677 121.61867 15561 ft 360 kts 26°
2026-05-07 23:04 30.36851 121.63287 15212 ft 357 kts 26°
2026-05-07 23:04 30.39021 121.64745 14404 ft 367 kts 28°
2026-05-07 23:04 30.41244 121.66294 13656 ft 375 kts 28°
2026-05-07 23:04 30.43469 121.67874 13145 ft 373 kts 28°
2026-05-07 23:05 30.45668 121.69445 12686 ft 369 kts 28°
2026-05-07 23:05 30.47800 121.70966 12510 ft 347 kts 28°
2026-05-07 23:05 30.49807 121.72394 11728 ft 336 kts 28°
2026-05-07 23:05 30.51813 121.73813 10681 ft 337 kts 28°
2026-05-07 23:06 30.53783 121.75203 10277 ft 323 kts 27°
2026-05-07 23:06 30.55643 121.76518 10150 ft 303 kts 27°
2026-05-07 23:06 30.57466 121.77607 9796 ft 290 kts 15°
2026-05-07 23:06 30.59384 121.78242 9364 ft 287 kts 11°
2026-05-07 23:07 30.61322 121.78840 8878 ft 289 kts 12°
2026-05-07 23:07 30.63258 121.79445 8430 ft 285 kts 12°
2026-05-07 23:07 30.65129 121.80039 8017 ft 274 kts 12°
2026-05-07 23:07 30.66942 121.80612 7605 ft 273 kts 12°
2026-05-07 23:08 30.68719 121.81177 7389 ft 254 kts 12°
2026-05-07 23:08 30.70356 121.81700 7329 ft 237 kts 11°
2026-05-07 23:08 30.71874 121.82409 7246 ft 237 kts 29°
2026-05-07 23:08 30.73088 121.83734 7067 ft 245 kts 51°
2026-05-07 23:09 30.73802 121.85535 6675 ft 248 kts 68°
2026-05-07 23:09 30.74324 121.87446 6259 ft 247 kts 67°
2026-05-07 23:09 30.74848 121.89344 5880 ft 245 kts 68°
2026-05-07 23:09 30.75369 121.91218 5498 ft 242 kts 68°
2026-05-07 23:10 30.75882 121.93059 5262 ft 233 kts 68°
2026-05-07 23:10 30.76552 121.94676 5204 ft 214 kts 43°
2026-05-07 23:10 30.77754 121.95551 5121 ft 203 kts 14°
2026-05-07 23:10 30.79144 121.95488 4735 ft 203 kts 344°
2026-05-07 23:11 30.80473 121.94966 4368 ft 201 kts 345°
2026-05-07 23:11 30.81801 121.94472 4027 ft 200 kts 346°
2026-05-07 23:11 30.83122 121.93980 3929 ft 200 kts 346°
2026-05-07 23:11 30.84449 121.93484 3863 ft 200 kts 346°
2026-05-07 23:12 30.85774 121.92987 3636 ft 200 kts 346°
2026-05-07 23:12 30.87097 121.92491 3423 ft 199 kts 346°
2026-05-07 23:12 30.88391 121.92005 3183 ft 189 kts 347°
2026-05-07 23:12 30.89599 121.91551 3048 ft 178 kts 347°
2026-05-07 23:13 30.90761 121.91116 3006 ft 174 kts 347°
2026-05-07 23:13 30.91893 121.90692 3013 ft 173 kts 347°
2026-05-07 23:13 30.93050 121.90258 3017 ft 173 kts 347°
2026-05-07 23:13 30.94178 121.89835 3017 ft 173 kts 346°
2026-05-07 23:14 30.95320 121.89407 3015 ft 172 kts 346°
2026-05-07 23:14 30.96460 121.88978 3015 ft 172 kts 346°
2026-05-07 23:14 30.97596 121.88552 3029 ft 172 kts 347°
2026-05-07 23:14 30.98738 121.88123 2891 ft 172 kts 347°
2026-05-07 23:15 30.99874 121.87696 2693 ft 171 kts 347°
2026-05-07 23:15 31.01007 121.87270 2463 ft 171 kts 347°
2026-05-07 23:15 31.02134 121.86846 2232 ft 170 kts 347°
2026-05-07 23:15 31.03228 121.86434 2009 ft 156 kts 346°
2026-05-07 23:16 31.04247 121.86049 1794 ft 152 kts 346°
2026-05-07 23:16 31.05243 121.85675 1596 ft 149 kts 346°
2026-05-07 23:16 31.06224 121.85306 1388 ft 146 kts 347°
2026-05-07 23:16 31.07177 121.84948 1191 ft 143 kts 346°
2026-05-07 23:17 31.08126 121.84588 985 ft 143 kts 346°
2026-05-07 23:17 31.09075 121.84222 808 ft 145 kts 345°
2026-05-07 23:17 31.10033 121.83864 632 ft 145 kts 347°
2026-05-07 23:17 31.10988 121.83508 425 ft 143 kts 343°
2026-05-07 23:18 31.11944 121.83138 238 ft 146 kts 345°
2026-05-07 23:18 31.12908 121.82789 72 ft 144 kts 345°
2026-05-07 23:18 31.13894 121.82438 633 ft 148 kts 346°
2026-05-07 23:18 31.14903 121.82073 1336 ft 150 kts 347°
2026-05-07 23:19 31.15903 121.81710 1772 ft 155 kts 348°
2026-05-07 23:19 31.17016 121.81754 1987 ft 172 kts 23°
2026-05-07 23:19 31.17949 121.82723 2257 ft 187 kts 49°
2026-05-07 23:19 31.18705 121.83966 2710 ft 189 kts 53°
2026-05-07 23:20 31.19324 121.85333 2977 ft 196 kts 73°
2026-05-07 23:20 31.19185 121.86931 3010 ft 206 kts 109°
2026-05-07 23:20 31.18208 121.88181 3025 ft 218 kts 143°
2026-05-07 23:20 31.16844 121.88941 3030 ft 221 kts 152°
2026-05-07 23:21 31.15424 121.89624 3024 ft 221 kts 153°
2026-05-07 23:21 31.14002 121.90308 3021 ft 221 kts 153°
2026-05-07 23:21 31.12580 121.90998 3021 ft 221 kts 153°
2026-05-07 23:21 31.11157 121.91687 3021 ft 221 kts 153°
2026-05-07 23:22 31.09734 121.92371 3021 ft 222 kts 155°
2026-05-07 23:22 31.08243 121.92874 3002 ft 224 kts 162°
2026-05-07 23:22 31.06710 121.93290 3025 ft 232 kts 163°
2026-05-07 23:22 31.05109 121.93717 3005 ft 238 kts 163°
2026-05-07 23:23 31.03492 121.94149 3023 ft 239 kts 163°
2026-05-07 23:23 31.01859 121.94558 2783 ft 241 kts 169°
2026-05-07 23:23 31.00201 121.94371 2437 ft 239 kts 199°
2026-05-07 23:23 30.98839 121.93378 2128 ft 225 kts 227°
2026-05-07 23:24 30.97916 121.92033 2011 ft 203 kts 248°
2026-05-07 23:24 30.97637 121.90486 2019 ft 191 kts 279°
2026-05-07 23:24 30.98031 121.89078 2022 ft 179 kts 309°
2026-05-07 23:24 30.98906 121.88121 2023 ft 170 kts 336°
2026-05-07 23:25 30.99998 121.87647 2033 ft 168 kts 346°
2026-05-07 23:25 31.01114 121.87229 2022 ft 169 kts 346°
2026-05-07 23:25 31.02220 121.86814 2013 ft 170 kts 345°
2026-05-07 23:25 31.03344 121.86392 1957 ft 170 kts 346°
2026-05-07 23:26 31.04462 121.85971 1745 ft 169 kts 346°
2026-05-07 23:26 31.05576 121.85551 1520 ft 164 kts 346°
2026-05-07 23:26 31.06606 121.85162 1298 ft 150 kts 347°
2026-05-07 23:26 31.07581 121.84795 1106 ft 145 kts 346°
2026-05-07 23:27 31.09480 121.84086 725 ft 143 kts 346°
2026-05-07 23:27 31.10428 121.83733 562 ft 146 kts 343°
2026-05-07 23:27 31.11378 121.83361 360 ft 144 kts 344°
2026-05-07 23:28 31.12343 121.82993 164 ft 146 kts 345°
2026-05-07 23:28 31.13310 121.82637 42 ft 144 kts 344°
2026-05-07 23:28 31.14143 121.82326 22 ft 98 kts 342°
2026-05-07 23:28 31.14618 121.82147 21 ft 47 kts 342°
2026-05-07 23:29 31.14852 121.82057 21 ft 34 kts 341°
2026-05-07 23:29 31.15052 121.81926 21 ft 32 kts 315°
2026-05-07 23:29 31.15202 121.81751 23 ft 30 kts 315°
2026-05-07 23:29 31.15352 121.81598 23 ft 29 kts 333°
2026-05-07 23:30 31.15500 121.81519 23 ft 17 kts 295°
2026-05-07 23:30 31.15473 121.81367 24 ft 24 kts 251°
2026-05-07 23:30 31.15417 121.81164 24 ft 25 kts 253°
2026-05-07 23:30 31.15365 121.80978 23 ft 24 kts 252°
2026-05-07 23:31 31.15297 121.80865 23 ft 16 kts 182°
2026-05-07 23:31 31.15182 121.80901 23 ft 20 kts 163°
2026-05-07 23:31 31.15050 121.80953 24 ft 19 kts 162°
2026-05-07 23:31 31.14987 121.80940 23 ft 8 kts 246°
2026-05-07 23:32 31.14972 121.80877 25 ft 6 kts 253°
2026-05-07 23:32 31.14970 121.80872 25 ft 0 kts 252°
2026-05-07 23:32 31.14971 121.80872 25 ft 0 kts 252°
2026-05-07 23:33 31.14971 121.80873 25 ft 0 kts 252°